Time,TemperatureF,DewpointF,PressureIn,WindDirection,WindDirectionDegrees,WindSpeedMPH,WindSpeedGustMPH,Humidity,HourlyPrecipIn,Conditions,Clouds,dailyrainin,SolarRadiationWatts/m^2,SoftwareType,DateUTC
2013-05-21 00:00:00,66.8,-99.9,29.85,ESE,116,3.0,3.0,255,0.00,,,0.00,0,Wunderground v.1.15,2013-05-21 07:00:00,
2013-05-21 00:07:00,66.8,-99.9,29.85,ESE,117,1.0,4.0,255,0.00,,,0.00,0,Wunderground v.1.15,2013-05-21 07:07:00,
2013-05-21 00:12:00,66.6,-99.9,29.85,ESE,118,0.0,1.0,255,0.00,,,0.00,0,Wunderground v.1.15,2013-05-21 07:12:00,
2013-05-21 00:17:00,66.5,66.5,29.85,ESE,115,2.0,2.0,100,0.00,,,0.00,0,Wunderground v.1.15,2013-05-21 07:17:00,
2013-05-21 00:23:00,66.3,66.3,29.84,ESE,108,3.0,4.0,100,0.00,,,0.00,0,Wunderground v.1.15,2013-05-21 07:23:00,
2013-05-21 00:29:00,66.2,66.2,29.84,ESE,119,3.0,4.0,100,0.00,,,0.00,0,Wunderground v.1.15,2013-05-21 07:29:00,
2013-05-21 00:34:00,66.1,66.1,29.84,ESE,118,3.0,3.0,100,0.00,,,0.00,0,Wunderground v.1.15,2013-05-21 07:34:00,
2013-05-21 00:40:00,66.0,66.0,29.84,SE,125,3.0,4.0,100,0.00,,,0.00,0,Wunderground v.1.15,2013-05-21 07:40:00,
2013-05-21 00:46:00,66.0,66.0,29.83,SE,126,2.0,4.0,100,0.00,,,0.00,0,Wunderground v.1.15,2013-05-21 07:46:00,
2013-05-21 00:52:00,65.9,65.9,29.83,SE,127,1.0,4.0,100,0.00,,,0.00,0,Wunderground v.1.15,2013-05-21 07:52:00,
2013-05-21 00:58:00,65.9,65.9,29.83,SE,124,3.0,4.0,100,0.00,,,0.00,0,Wunderground v.1.15,2013-05-21 07:58:00,
2013-05-21 01:03:00,65.8,65.8,29.82,SE,124,3.0,4.0,100,0.00,,,0.00,0,Wunderground v.1.15,2013-05-21 08:03:00,
2013-05-21 01:09:00,65.7,65.7,29.82,SE,124,2.0,4.0,100,0.00,,,0.00,0,Wunderground v.1.15,2013-05-21 08:09:00,
2013-05-21 01:15:00,65.7,65.7,29.82,SE,125,0.0,2.0,100,0.00,,,0.00,0,Wunderground v.1.15,2013-05-21 08:15:00,
2013-05-21 01:20:00,65.6,65.6,29.82,SE,131,3.0,3.0,100,0.00,,,0.00,0,Wunderground v.1.15,2013-05-21 08:20:00,
2013-05-21 01:25:00,65.5,65.5,29.82,SE,129,3.0,5.0,100,0.00,,,0.00,0,Wunderground v.1.15,2013-05-21 08:25:00,
2013-05-21 01:31:00,65.5,65.5,29.81,SE,131,1.0,2.0,100,0.00,,,0.00,0,Wunderground v.1.15,2013-05-21 08:31:00,
2013-05-21 01:38:00,65.4,65.4,29.82,SE,131,1.0,3.0,100,0.00,,,0.00,0,Wunderground v.1.15,2013-05-21 08:38:00,
2013-05-21 01:44:00,65.3,65.3,29.81,SE,127,2.0,4.0,100,0.00,,,0.00,0,Wunderground v.1.15,2013-05-21 08:44:00,
2013-05-21 01:50:00,65.3,65.3,29.82,SE,131,3.0,3.0,100,0.00,,,0.00,0,Wunderground v.1.15,2013-05-21 08:50:00,
2013-05-21 01:55:00,65.7,65.7,29.82,SE,139,2.0,3.0,100,0.00,,,0.00,0,Wunderground v.1.15,2013-05-21 08:55:00,
2013-05-21 02:01:00,65.5,-99.9,29.82,SE,140,2.0,6.0,255,0.00,,,0.00,0,Wunderground v.1.15,2013-05-21 09:01:00,
2013-05-21 02:07:00,65.4,-99.9,29.82,SE,133,3.0,6.0,255,0.00,,,0.00,0,Wunderground v.1.15,2013-05-21 09:07:00,
2013-05-21 02:13:00,65.1,-99.9,29.82,SE,146,1.0,3.0,255,0.00,,,0.00,0,Wunderground v.1.15,2013-05-21 09:13:00,
2013-05-21 02:19:00,65.0,-99.9,29.81,SE,139,1.0,1.0,255,0.00,,,0.00,0,Wunderground v.1.15,2013-05-21 09:19:00,
2013-05-21 02:26:00,64.8,-99.9,29.82,ESE,114,5.0,5.0,255,0.00,,,0.00,0,Wunderground v.1.15,2013-05-21 09:26:00,
2013-05-21 02:32:00,64.9,-99.9,29.81,SE,132,6.0,6.0,255,0.00,,,0.00,0,Wunderground v.1.15,2013-05-21 09:32:00,
2013-05-21 02:38:00,65.0,-99.9,29.81,SE,134,1.0,6.0,255,0.00,,,0.00,0,Wunderground v.1.15,2013-05-21 09:38:00,
2013-05-21 02:43:00,65.0,-99.9,29.81,SE,130,1.0,3.0,255,0.00,,,0.00,0,Wunderground v.1.15,2013-05-21 09:43:00,
2013-05-21 02:49:00,65.0,-99.9,29.81,SE,129,3.0,3.0,255,0.00,,,0.00,0,Wunderground v.1.15,2013-05-21 09:49:00,
2013-05-21 02:56:00,65.0,-99.9,29.81,SE,129,1.0,3.0,255,0.00,,,0.00,0,Wunderground v.1.15,2013-05-21 09:56:00,
2013-05-21 03:02:00,65.1,-99.9,29.81,ESE,112,2.0,6.0,255,0.00,,,0.00,0,Wunderground v.1.15,2013-05-21 10:02:00,
2013-05-21 03:07:00,65.2,-99.9,29.80,SE,129,4.0,6.0,255,0.00,,,0.00,0,Wunderground v.1.15,2013-05-21 10:07:00,
2013-05-21 03:14:00,65.0,-99.9,29.81,ESE,122,0.0,2.0,255,0.00,,,0.00,0,Wunderground v.1.15,2013-05-21 10:14:00,
2013-05-21 03:20:00,65.0,-99.9,29.81,ESE,123,0.0,0.0,255,0.00,,,0.00,0,Wunderground v.1.15,2013-05-21 10:20:00,
2013-05-21 03:25:00,64.9,-99.9,29.81,ESE,123,0.0,0.0,255,0.00,,,0.00,0,Wunderground v.1.15,2013-05-21 10:25:00,
2013-05-21 03:31:00,64.8,-99.9,29.81,SE,125,1.0,1.0,255,0.00,,,0.00,0,Wunderground v.1.15,2013-05-21 10:31:00,
2013-05-21 03:37:00,64.8,-99.9,29.81,ESE,110,1.0,1.0,255,0.00,,,0.00,0,Wunderground v.1.15,2013-05-21 10:37:00,
2013-05-21 03:42:00,64.8,-99.9,29.81,SE,132,2.0,3.0,255,0.00,,,0.00,0,Wunderground v.1.15,2013-05-21 10:42:00,
2013-05-21 03:48:00,64.9,-99.9,29.81,ESE,123,2.0,3.0,255,0.00,,,0.00,0,Wunderground v.1.15,2013-05-21 10:48:00,
2013-05-21 03:54:00,64.9,-99.9,29.81,ESE,121,0.0,1.0,255,0.00,,,0.00,0,Wunderground v.1.15,2013-05-21 10:54:00,
2013-05-21 04:01:00,64.7,-99.9,29.81,ESE,121,1.0,1.0,255,0.00,,,0.00,0,Wunderground v.1.15,2013-05-21 11:01:00,
2013-05-21 04:07:00,64.4,-99.9,29.81,SE,132,0.0,6.0,255,0.00,,,0.00,0,Wunderground v.1.15,2013-05-21 11:07:00,
2013-05-21 04:12:00,64.3,-99.9,29.81,SSE,149,2.0,4.0,255,0.00,,,0.00,0,Wunderground v.1.15,2013-05-21 11:12:00,
2013-05-21 04:18:00,64.2,-99.9,29.81,SSE,153,1.0,4.0,255,0.00,,,0.00,0,Wunderground v.1.15,2013-05-21 11:18:00,
2013-05-21 04:24:00,64.2,-99.9,29.81,SE,125,3.0,3.0,255,0.00,,,0.00,0,Wunderground v.1.15,2013-05-21 11:24:00,
2013-05-21 04:29:00,64.1,-99.9,29.81,SSE,154,2.0,2.0,255,0.00,,,0.00,0,Wunderground v.1.15,2013-05-21 11:29:00,
2013-05-21 04:35:00,64.1,-99.9,29.81,SE,133,4.0,4.0,255,0.00,,,0.00,0,Wunderground v.1.15,2013-05-21 11:35:00,
2013-05-21 04:41:00,63.9,63.9,29.81,SE,137,0.0,2.0,100,0.00,,,0.00,0,Wunderground v.1.15,2013-05-21 11:41:00,
2013-05-21 04:47:00,63.7,-99.9,29.82,SE,130,0.0,2.0,255,0.00,,,0.00,0,Wunderground v.1.15,2013-05-21 11:47:00,
2013-05-21 04:52:00,63.4,63.4,29.82,ESE,118,0.0,2.0,100,0.00,,,0.00,0,Wunderground v.1.15,2013-05-21 11:52:00,
2013-05-21 04:58:00,63.5,63.5,29.82,SE,137,2.0,2.0,100,0.00,,,0.00,0,Wunderground v.1.15,2013-05-21 11:58:00,
2013-05-21 05:03:00,63.0,63.0,29.81,SE,128,1.0,5.0,100,0.00,,,0.00,0,Wunderground v.1.15,2013-05-21 12:03:00,
2013-05-21 05:09:00,62.9,62.9,29.82,ESE,115,0.0,5.0,100,0.00,,,0.00,0,Wunderground v.1.15,2013-05-21 12:09:00,
2013-05-21 05:14:00,62.9,62.9,29.82,ENE,66,0.0,2.0,100,0.00,,,0.00,0,Wunderground v.1.15,2013-05-21 12:14:00,
2013-05-21 05:20:00,62.9,62.9,29.82,NE,49,0.0,0.0,100,0.00,,,0.00,0,Wunderground v.1.15,2013-05-21 12:20:00,
2013-05-21 05:26:00,62.7,62.7,29.82,North,5,0.0,1.0,100,0.00,,,0.00,0,Wunderground v.1.15,2013-05-21 12:26:00,
2013-05-21 05:32:00,62.7,62.7,29.83,North,5,0.0,0.0,100,0.00,,,0.00,0,Wunderground v.1.15,2013-05-21 12:32:00,
2013-05-21 05:38:00,62.6,62.6,29.83,East,91,1.0,1.0,100,0.00,,,0.00,0,Wunderground v.1.15,2013-05-21 12:38:00,
2013-05-21 05:43:00,62.3,62.3,29.83,SE,138,0.0,0.0,100,0.00,,,0.00,0,Wunderground v.1.15,2013-05-21 12:43:00,
2013-05-21 05:49:00,62.0,62.0,29.83,ESE,114,0.0,0.0,100,0.00,,,0.00,0,Wunderground v.1.15,2013-05-21 12:49:00,
2013-05-21 05:54:00,61.8,61.8,29.83,ESE,115,0.0,1.0,100,0.00,,,0.00,0,Wunderground v.1.15,2013-05-21 12:54:00,
2013-05-21 06:00:00,61.5,61.5,29.84,SW,216,1.0,1.0,100,0.00,,,0.00,0,Wunderground v.1.15,2013-05-21 13:00:00,
2013-05-21 06:07:00,61.1,61.1,29.85,SW,227,0.0,5.0,100,0.00,,,0.00,0,Wunderground v.1.15,2013-05-21 13:07:00,
2013-05-21 06:13:00,60.4,60.4,29.85,South,188,0.0,1.0,100,0.00,,,0.00,0,Wunderground v.1.15,2013-05-21 13:13:00,
2013-05-21 06:18:00,59.4,59.4,29.85,ESE,113,0.0,1.0,100,0.00,,,0.00,0,Wunderground v.1.15,2013-05-21 13:18:00,
2013-05-21 06:23:00,57.7,57.7,29.85,ESE,123,0.0,3.0,100,0.00,,,0.00,0,Wunderground v.1.15,2013-05-21 13:23:00,
2013-05-21 06:29:00,57.1,57.1,29.85,SE,124,0.0,0.0,100,0.00,,,0.00,0,Wunderground v.1.15,2013-05-21 13:29:00,
2013-05-21 06:35:00,57.2,57.2,29.86,SE,124,0.0,0.0,100,0.00,,,0.00,0,Wunderground v.1.15,2013-05-21 13:35:00,
2013-05-21 06:41:00,57.3,57.3,29.86,SE,124,0.0,0.0,100,0.00,,,0.00,0,Wunderground v.1.15,2013-05-21 13:41:00,
2013-05-21 06:47:00,55.7,55.7,29.86,SE,138,2.0,3.0,100,0.00,,,0.00,0,Wunderground v.1.15,2013-05-21 13:47:00,
2013-05-21 06:52:00,55.7,55.7,29.86,SE,124,5.0,5.0,100,0.00,,,0.00,0,Wunderground v.1.15,2013-05-21 13:52:00,
2013-05-21 06:57:00,54.6,54.6,29.85,ESE,119,6.0,9.0,100,0.00,,,0.00,0,Wunderground v.1.15,2013-05-21 13:57:00,
2013-05-21 07:02:00,60.8,60.8,29.85,ESE,123,6.0,7.0,100,0.00,,,0.00,0,Wunderground v.1.15,2013-05-21 14:02:00,
2013-05-21 07:09:00,61.4,61.4,29.84,SE,145,1.0,7.0,100,0.00,,,0.00,0,Wunderground v.1.15,2013-05-21 14:09:00,
2013-05-21 07:14:00,61.6,61.6,29.84,SE,128,5.0,9.0,100,0.00,,,0.00,0,Wunderground v.1.15,2013-05-21 14:14:00,
2013-05-21 07:19:00,61.7,61.7,29.84,SE,136,1.0,1.0,100,0.00,,,0.00,0,Wunderground v.1.15,2013-05-21 14:19:00,
2013-05-21 07:25:00,61.8,61.8,29.85,SE,140,1.0,5.0,100,0.00,,,0.00,0,Wunderground v.1.15,2013-05-21 14:25:00,
2013-05-21 07:30:00,61.9,61.9,29.86,SE,138,1.0,1.0,100,0.00,,,0.00,0,Wunderground v.1.15,2013-05-21 14:30:00,
2013-05-21 07:36:00,62.0,62.0,29.86,SE,138,4.0,4.0,100,0.00,,,0.00,0,Wunderground v.1.15,2013-05-21 14:36:00,
2013-05-21 07:42:00,62.0,62.0,29.86,SSE,150,1.0,2.0,100,0.00,,,0.00,0,Wunderground v.1.15,2013-05-21 14:42:00,
2013-05-21 07:48:00,62.0,62.0,29.87,SE,130,7.0,7.0,100,0.00,,,0.00,0,Wunderground v.1.15,2013-05-21 14:48:00,
2013-05-21 07:53:00,62.1,62.1,29.87,SE,124,5.0,5.0,100,0.00,,,0.00,0,Wunderground v.1.15,2013-05-21 14:53:00,
2013-05-21 07:59:00,62.4,62.4,29.87,ESE,119,6.0,6.0,100,0.00,,,0.00,0,Wunderground v.1.15,2013-05-21 14:59:00,
2013-05-21 08:07:00,62.9,62.9,29.88,SE,136,4.0,11.0,100,0.00,,,0.00,0,Wunderground v.1.15,2013-05-21 15:07:00,
2013-05-21 08:12:00,63.3,63.3,29.87,SE,143,2.0,7.0,100,0.00,,,0.00,0,Wunderground v.1.15,2013-05-21 15:12:00,
2013-05-21 08:18:00,63.7,63.7,29.86,SE,132,3.0,7.0,100,0.00,,,0.00,0,Wunderground v.1.15,2013-05-21 15:18:00,
2013-05-21 08:25:00,64.2,64.2,29.86,SE,134,5.0,5.0,100,0.00,,,0.00,0,Wunderground v.1.15,2013-05-21 15:25:00,
2013-05-21 08:30:00,64.7,64.7,29.86,SSE,148,2.0,5.0,100,0.00,,,0.00,0,Wunderground v.1.15,2013-05-21 15:30:00,
2013-05-21 08:35:00,65.0,65.0,29.86,SE,135,5.0,5.0,100,0.00,,,0.00,0,Wunderground v.1.15,2013-05-21 15:35:00,
2013-05-21 08:41:00,65.4,65.4,29.87,SSE,161,0.0,3.0,100,0.00,,,0.00,0,Wunderground v.1.15,2013-05-21 15:41:00,
2013-05-21 08:47:00,65.8,65.8,29.86,SE,139,7.0,7.0,100,0.00,,,0.00,0,Wunderground v.1.15,2013-05-21 15:47:00,
2013-05-21 08:53:00,66.2,66.2,29.86,SE,130,3.0,5.0,100,0.00,,,0.00,0,Wunderground v.1.15,2013-05-21 15:53:00,
2013-05-21 08:58:00,66.6,66.6,29.85,SE,138,4.0,12.0,100,0.00,,,0.00,0,Wunderground v.1.15,2013-05-21 15:58:00,
2013-05-21 09:07:00,67.4,67.4,29.85,SE,139,9.0,10.0,100,0.00,,,0.00,0,Wunderground v.1.15,2013-05-21 16:07:00,
2013-05-21 09:13:00,67.8,67.8,29.85,SSE,148,5.0,6.0,100,0.00,,,0.00,0,Wunderground v.1.15,2013-05-21 16:13:00,
2013-05-21 09:18:00,68.2,68.2,29.85,SE,138,10.0,10.0,100,0.00,,,0.00,0,Wunderground v.1.15,2013-05-21 16:18:00,
2013-05-21 09:24:00,68.5,68.5,29.85,SE,138,12.0,12.0,100,0.00,,,0.00,0,Wunderground v.1.15,2013-05-21 16:24:00,
2013-05-21 09:29:00,68.9,68.9,29.86,SE,145,1.0,1.0,100,0.00,,,0.00,0,Wunderground v.1.15,2013-05-21 16:29:00,
2013-05-21 09:35:00,69.4,69.4,29.86,SSE,163,3.0,6.0,100,0.00,,,0.00,0,Wunderground v.1.15,2013-05-21 16:35:00,
2013-05-21 09:40:00,69.7,69.7,29.86,SE,128,4.0,5.0,100,0.00,,,0.00,0,Wunderground v.1.15,2013-05-21 16:40:00,
2013-05-21 09:46:00,70.2,70.2,29.86,SE,135,1.0,5.0,100,0.00,,,0.00,0,Wunderground v.1.15,2013-05-21 16:46:00,
2013-05-21 09:51:00,70.6,70.6,29.86,SSE,159,0.0,2.0,100,0.00,,,0.00,0,Wunderground v.1.15,2013-05-21 16:51:00,
2013-05-21 09:56:00,70.9,70.9,29.87,SSE,160,0.0,5.0,100,0.00,,,0.00,0,Wunderground v.1.15,2013-05-21 16:56:00,
2013-05-21 10:01:00,71.2,71.2,29.87,SW,220,1.0,15.0,100,0.00,,,0.00,0,Wunderground v.1.15,2013-05-21 17:01:00,
2013-05-21 10:07:00,71.4,71.4,29.87,SSW,192,6.0,15.0,100,0.00,,,0.00,0,Wunderground v.1.15,2013-05-21 17:07:00,
2013-05-21 10:13:00,71.4,71.4,29.87,SSE,159,1.0,6.0,100,0.00,,,0.00,0,Wunderground v.1.15,2013-05-21 17:13:00,
2013-05-21 10:19:00,71.2,71.2,29.87,SE,142,1.0,6.0,100,0.00,,,0.00,0,Wunderground v.1.15,2013-05-21 17:19:00,
2013-05-21 10:24:00,71.3,71.3,29.87,SSE,148,2.0,3.0,100,0.00,,,0.00,0,Wunderground v.1.15,2013-05-21 17:24:00,
2013-05-21 10:30:00,71.6,71.6,29.87,SE,136,3.0,3.0,100,0.00,,,0.00,0,Wunderground v.1.15,2013-05-21 17:30:00,
2013-05-21 10:36:00,71.7,71.7,29.87,SE,146,2.0,3.0,100,0.00,,,0.00,0,Wunderground v.1.15,2013-05-21 17:36:00,
2013-05-21 10:42:00,71.9,71.9,29.87,SSE,155,2.0,4.0,100,0.00,,,0.00,0,Wunderground v.1.15,2013-05-21 17:42:00,
2013-05-21 10:48:00,71.9,71.9,29.88,SSE,156,1.0,4.0,100,0.00,,,0.00,0,Wunderground v.1.15,2013-05-21 17:48:00,
2013-05-21 10:54:00,72.1,72.1,29.88,SSE,147,0.0,4.0,100,0.00,,,0.00,0,Wunderground v.1.15,2013-05-21 17:54:00,
2013-05-21 10:59:00,72.3,72.3,29.87,SE,125,3.0,3.0,100,0.00,,,0.00,0,Wunderground v.1.15,2013-05-21 17:59:00,
2013-05-21 11:07:00,72.6,72.6,29.87,SSE,149,3.0,12.0,100,0.00,,,0.00,0,Wunderground v.1.15,2013-05-21 18:07:00,
2013-05-21 11:14:00,72.9,72.9,29.87,SE,135,5.0,5.0,100,0.00,,,0.00,0,Wunderground v.1.15,2013-05-21 18:14:00,
2013-05-21 11:19:00,73.1,73.1,29.87,SSE,156,0.0,5.0,100,0.00,,,0.00,0,Wunderground v.1.15,2013-05-21 18:19:00,
2013-05-21 11:24:00,73.4,73.4,29.87,SSE,153,1.0,6.0,100,0.00,,,0.00,0,Wunderground v.1.15,2013-05-21 18:24:00,
2013-05-21 11:30:00,73.5,73.5,29.87,SE,134,3.0,3.0,100,0.00,,,0.00,0,Wunderground v.1.15,2013-05-21 18:30:00,
2013-05-21 11:35:00,73.7,73.7,29.87,SSE,149,3.0,6.0,100,0.00,,,0.00,0,Wunderground v.1.15,2013-05-21 18:35:00,
2013-05-21 11:40:00,74.1,74.1,29.87,South,191,1.0,3.0,100,0.00,,,0.00,0,Wunderground v.1.15,2013-05-21 18:40:00,
2013-05-21 11:46:00,74.6,74.6,29.87,SE,127,6.0,6.0,100,0.00,,,0.00,0,Wunderground v.1.15,2013-05-21 18:46:00,
2013-05-21 11:53:00,74.5,74.5,29.87,SE,137,3.0,11.0,100,0.00,,,0.00,0,Wunderground v.1.15,2013-05-21 18:53:00,
2013-05-21 11:58:00,74.8,74.8,29.87,SSE,157,3.0,11.0,100,0.00,,,0.00,0,Wunderground v.1.15,2013-05-21 18:58:00,
2013-05-21 12:03:00,75.5,75.5,29.87,South,176,1.0,9.0,100,0.00,,,0.00,0,Wunderground v.1.15,2013-05-21 19:03:00,
2013-05-21 12:09:00,75.9,75.9,29.86,SE,136,2.0,2.0,100,0.00,,,0.00,0,Wunderground v.1.15,2013-05-21 19:09:00,
2013-05-21 12:14:00,76.5,76.5,29.86,SSE,157,0.0,2.0,100,0.00,,,0.00,0,Wunderground v.1.15,2013-05-21 19:14:00,
2013-05-21 12:20:00,77.2,77.2,29.86,SSE,148,5.0,5.0,100,0.00,,,0.00,0,Wunderground v.1.15,2013-05-21 19:20:00,
2013-05-21 12:25:00,77.5,77.5,29.86,SSE,156,3.0,5.0,100,0.00,,,0.00,0,Wunderground v.1.15,2013-05-21 19:25:00,
2013-05-21 12:31:00,78.1,78.1,29.86,SW,226,3.0,3.0,100,0.00,,,0.00,0,Wunderground v.1.15,2013-05-21 19:31:00,
2013-05-21 12:36:00,79.0,79.0,29.86,SSW,207,1.0,5.0,100,0.00,,,0.00,0,Wunderground v.1.15,2013-05-21 19:36:00,
2013-05-21 12:42:00,79.2,79.2,29.85,WSW,249,2.0,3.0,100,0.00,,,0.00,0,Wunderground v.1.15,2013-05-21 19:42:00,
2013-05-21 12:48:00,79.8,79.8,29.86,SE,127,4.0,5.0,100,0.00,,,0.00,0,Wunderground v.1.15,2013-05-21 19:48:00,
2013-05-21 12:54:00,79.7,79.7,29.85,West,272,3.0,7.0,100,0.00,,,0.00,0,Wunderground v.1.15,2013-05-21 19:54:00,
2013-05-21 13:00:00,80.1,80.1,29.85,SW,223,3.0,3.0,100,0.00,,,0.00,0,Wunderground v.1.15,2013-05-21 20:00:00,
2013-05-21 13:07:00,80.7,80.7,29.85,SE,146,2.0,12.0,100,0.00,,,0.00,0,Wunderground v.1.15,2013-05-21 20:07:00,
2013-05-21 13:12:00,80.9,80.9,29.85,SSE,155,5.0,5.0,100,0.00,,,0.00,0,Wunderground v.1.15,2013-05-21 20:12:00,
2013-05-21 13:17:00,80.9,80.9,29.84,SSE,158,1.0,5.0,100,0.00,,,0.00,0,Wunderground v.1.15,2013-05-21 20:17:00,
2013-05-21 13:22:00,80.8,80.8,29.84,SSW,197,2.0,2.0,100,0.00,,,0.00,0,Wunderground v.1.15,2013-05-21 20:22:00,
2013-05-21 13:29:00,80.6,80.6,29.84,WSW,247,5.0,5.0,100,0.00,,,0.00,0,Wunderground v.1.15,2013-05-21 20:29:00,
2013-05-21 13:34:00,80.4,80.4,29.84,SSW,203,0.0,5.0,100,0.00,,,0.00,0,Wunderground v.1.15,2013-05-21 20:34:00,
2013-05-21 13:39:00,83.6,83.6,29.84,ESE,111,0.0,0.0,100,0.00,,,0.00,0,Wunderground v.1.15,2013-05-21 20:39:00,
2013-05-21 13:45:00,83.8,83.8,29.83,SE,133,1.0,4.0,100,0.00,,,0.00,0,Wunderground v.1.15,2013-05-21 20:45:00,
2013-05-21 13:51:00,84.0,84.0,29.83,SSE,165,3.0,5.0,100,0.00,,,0.00,0,Wunderground v.1.15,2013-05-21 20:51:00,
2013-05-21 13:57:00,84.0,84.0,29.83,SSE,154,1.0,5.0,100,0.00,,,0.00,0,Wunderground v.1.15,2013-05-21 20:57:00,
2013-05-21 14:03:00,84.6,84.6,29.83,SSW,201,3.0,10.0,100,0.00,,,0.00,0,Wunderground v.1.15,2013-05-21 21:03:00,
2013-05-21 14:08:00,85.4,85.4,29.83,SW,228,3.0,10.0,100,0.00,,,0.00,0,Wunderground v.1.15,2013-05-21 21:08:00,
2013-05-21 14:14:00,86.0,86.0,29.83,South,176,1.0,5.0,100,0.00,,,0.00,0,Wunderground v.1.15,2013-05-21 21:14:00,
2013-05-21 14:19:00,86.3,86.3,29.83,SSW,211,1.0,1.0,100,0.00,,,0.00,0,Wunderground v.1.15,2013-05-21 21:19:00,
2013-05-21 14:25:00,87.0,87.0,29.83,SSW,204,2.0,6.0,100,0.00,,,0.00,0,Wunderground v.1.15,2013-05-21 21:25:00,
2013-05-21 14:31:00,87.3,87.3,29.83,SSE,156,2.0,3.0,100,0.00,,,0.00,0,Wunderground v.1.15,2013-05-21 21:31:00,
2013-05-21 14:37:00,87.1,87.1,29.82,SE,142,3.0,3.0,100,0.00,,,0.00,0,Wunderground v.1.15,2013-05-21 21:37:00,
2013-05-21 14:43:00,87.0,87.0,29.82,SSE,155,2.0,3.0,100,0.00,,,0.00,0,Wunderground v.1.15,2013-05-21 21:43:00,
2013-05-21 14:48:00,87.6,87.6,29.82,WSW,252,6.0,6.0,100,0.00,,,0.00,0,Wunderground v.1.15,2013-05-21 21:48:00,
2013-05-21 14:55:00,88.0,88.0,29.82,WSW,238,2.0,4.0,100,0.00,,,0.00,0,Wunderground v.1.15,2013-05-21 21:55:00,
2013-05-21 15:00:00,88.1,88.1,29.82,West,261,5.0,5.0,100,0.00,,,0.00,0,Wunderground v.1.15,2013-05-21 22:00:00,
2013-05-21 15:07:00,88.1,88.1,29.81,SSW,200,2.0,10.0,100,0.00,,,0.00,0,Wunderground v.1.15,2013-05-21 22:07:00,
2013-05-21 15:13:00,88.3,88.3,29.81,SSW,202,2.0,4.0,100,0.00,,,0.00,0,Wunderground v.1.15,2013-05-21 22:13:00,
2013-05-21 15:18:00,88.4,88.4,29.81,WSW,252,2.0,4.0,100,0.00,,,0.00,0,Wunderground v.1.15,2013-05-21 22:18:00,
2013-05-21 15:23:00,88.4,88.4,29.81,West,279,3.0,6.0,100,0.00,,,0.00,0,Wunderground v.1.15,2013-05-21 22:23:00,
2013-05-21 15:28:00,88.4,88.4,29.81,SSE,154,3.0,6.0,100,0.00,,,0.00,0,Wunderground v.1.15,2013-05-21 22:28:00,
2013-05-21 15:34:00,88.1,88.1,29.81,ESE,119,0.0,3.0,100,0.00,,,0.00,0,Wunderground v.1.15,2013-05-21 22:34:00,
2013-05-21 15:40:00,88.2,88.2,29.81,SSW,199,2.0,2.0,100,0.00,,,0.00,0,Wunderground v.1.15,2013-05-21 22:40:00,
2013-05-21 15:45:00,88.4,88.4,29.81,South,182,1.0,3.0,100,0.00,,,0.00,0,Wunderground v.1.15,2013-05-21 22:45:00,
2013-05-21 15:51:00,88.4,88.4,29.80,SW,230,3.0,5.0,100,0.00,,,0.00,0,Wunderground v.1.15,2013-05-21 22:51:00,
2013-05-21 15:57:00,88.5,88.5,29.80,SSE,153,1.0,5.0,100,0.00,,,0.00,0,Wunderground v.1.15,2013-05-21 22:57:00,
2013-05-21 16:03:00,88.1,88.1,29.80,WSW,243,2.0,8.0,100,0.00,,,0.00,0,Wunderground v.1.15,2013-05-21 23:03:00,
2013-05-21 16:08:00,87.9,87.9,29.80,SW,217,2.0,8.0,100,0.00,,,0.00,0,Wunderground v.1.15,2013-05-21 23:08:00,
2013-05-21 16:13:00,88.1,88.1,29.79,SSW,195,1.0,2.0,100,0.00,,,0.00,0,Wunderground v.1.15,2013-05-21 23:13:00,
2013-05-21 16:18:00,87.6,87.6,29.80,WSW,252,5.0,5.0,100,0.00,,,0.00,0,Wunderground v.1.15,2013-05-21 23:18:00,
2013-05-21 16:24:00,87.8,87.8,29.79,South,169,1.0,2.0,100,0.00,,,0.00,0,Wunderground v.1.15,2013-05-21 23:24:00,
2013-05-21 16:30:00,87.3,87.3,29.79,SW,221,3.0,3.0,100,0.00,,,0.00,0,Wunderground v.1.15,2013-05-21 23:30:00,
2013-05-21 16:35:00,87.2,87.2,29.78,WSW,243,3.0,3.0,100,0.00,,,0.00,0,Wunderground v.1.15,2013-05-21 23:35:00,
2013-05-21 16:40:00,87.3,87.3,29.79,SSE,157,3.0,3.0,100,0.00,,,0.00,0,Wunderground v.1.15,2013-05-21 23:40:00,
2013-05-21 16:46:00,86.3,86.3,29.79,SE,144,1.0,6.0,100,0.00,,,0.00,0,Wunderground v.1.15,2013-05-21 23:46:00,
2013-05-21 16:52:00,85.8,85.8,29.78,SSE,153,2.0,3.0,100,0.00,,,0.00,0,Wunderground v.1.15,2013-05-21 23:52:00,
2013-05-21 16:58:00,85.0,85.0,29.78,South,174,1.0,5.0,100,0.00,,,0.00,0,Wunderground v.1.15,2013-05-21 23:58:00,
2013-05-21 17:07:00,84.5,84.5,29.78,SE,144,2.0,10.0,100,0.00,,,0.00,0,Wunderground v.1.15,2013-05-22 00:07:00,
2013-05-21 17:12:00,84.3,84.3,29.78,South,180,1.0,4.0,100,0.00,,,0.00,0,Wunderground v.1.15,2013-05-22 00:12:00,
2013-05-21 17:18:00,83.9,83.9,29.78,South,180,1.0,4.0,100,0.00,,,0.00,0,Wunderground v.1.15,2013-05-22 00:18:00,
2013-05-21 17:24:00,83.6,83.6,29.78,SSE,160,0.0,4.0,100,0.00,,,0.00,0,Wunderground v.1.15,2013-05-22 00:24:00,
2013-05-21 17:29:00,83.4,83.4,29.78,SSE,159,2.0,2.0,100,0.00,,,0.00,0,Wunderground v.1.15,2013-05-22 00:29:00,
2013-05-21 17:35:00,83.3,83.3,29.78,SSE,158,0.0,4.0,100,0.00,,,0.00,0,Wunderground v.1.15,2013-05-22 00:35:00,
2013-05-21 17:41:00,83.1,83.1,29.77,SW,223,2.0,2.0,100,0.00,,,0.00,0,Wunderground v.1.15,2013-05-22 00:41:00,
2013-05-21 17:47:00,83.0,83.0,29.77,SE,138,5.0,5.0,100,0.00,,,0.00,0,Wunderground v.1.15,2013-05-22 00:47:00,
2013-05-21 17:52:00,82.6,82.6,29.77,SW,215,2.0,2.0,100,0.00,,,0.00,0,Wunderground v.1.15,2013-05-22 00:52:00,
2013-05-21 17:58:00,82.2,82.2,29.77,SE,140,0.0,4.0,100,0.00,,,0.00,0,Wunderground v.1.15,2013-05-22 00:58:00,
2013-05-21 18:07:00,81.5,81.5,29.77,ESE,123,4.0,8.0,100,0.00,,,0.00,0,Wunderground v.1.15,2013-05-22 01:07:00,
2013-05-21 18:12:00,81.2,81.2,29.77,SSW,211,0.0,2.0,100,0.00,,,0.00,0,Wunderground v.1.15,2013-05-22 01:12:00,
2013-05-21 18:18:00,80.9,80.9,29.77,SSE,151,3.0,3.0,100,0.00,,,0.00,0,Wunderground v.1.15,2013-05-22 01:18:00,
2013-05-21 18:24:00,80.5,80.5,29.77,SSE,162,0.0,3.0,100,0.00,,,0.00,0,Wunderground v.1.15,2013-05-22 01:24:00,
2013-05-21 18:30:00,80.2,80.2,29.77,SSE,166,0.0,4.0,100,0.00,,,0.00,0,Wunderground v.1.15,2013-05-22 01:30:00,
2013-05-21 18:36:00,79.7,79.7,29.77,SE,142,2.0,6.0,100,0.00,,,0.00,0,Wunderground v.1.15,2013-05-22 01:36:00,
2013-05-21 18:41:00,79.5,79.5,29.77,SSE,158,1.0,2.0,100,0.00,,,0.00,0,Wunderground v.1.15,2013-05-22 01:41:00,
2013-05-21 18:47:00,79.0,79.0,29.77,ESE,123,2.0,5.0,100,0.00,,,0.00,0,Wunderground v.1.15,2013-05-22 01:47:00,
2013-05-21 18:53:00,78.7,78.7,29.77,SE,128,4.0,4.0,100,0.00,,,0.00,0,Wunderground v.1.15,2013-05-22 01:53:00,
2013-05-21 18:59:00,78.1,78.1,29.77,SE,137,2.0,2.0,100,0.00,,,0.00,0,Wunderground v.1.15,2013-05-22 01:59:00,
2013-05-21 19:07:00,77.6,77.6,29.77,SE,137,4.0,6.0,100,0.00,,,0.00,0,Wunderground v.1.15,2013-05-22 02:07:00,
2013-05-21 19:12:00,77.3,77.3,29.77,SSE,163,1.0,3.0,100,0.00,,,0.00,0,Wunderground v.1.15,2013-05-22 02:12:00,
2013-05-21 19:18:00,76.8,76.8,29.77,SSE,154,1.0,3.0,100,0.00,,,0.00,0,Wunderground v.1.15,2013-05-22 02:18:00,
2013-05-21 19:24:00,76.3,76.3,29.78,SSE,155,3.0,10.0,100,0.00,,,0.00,0,Wunderground v.1.15,2013-05-22 02:24:00,
2013-05-21 19:30:00,75.8,75.8,29.78,SE,135,3.0,3.0,100,0.00,,,0.00,0,Wunderground v.1.15,2013-05-22 02:30:00,
2013-05-21 19:36:00,75.2,75.2,29.78,SSE,151,4.0,4.0,100,0.00,,,0.00,0,Wunderground v.1.15,2013-05-22 02:36:00,
2013-05-21 19:42:00,74.6,74.6,29.78,ESE,108,4.0,8.0,100,0.00,,,0.00,0,Wunderground v.1.15,2013-05-22 02:42:00,
2013-05-21 19:47:00,74.1,74.1,29.78,SE,146,1.0,8.0,100,0.00,,,0.00,0,Wunderground v.1.15,2013-05-22 02:47:00,
2013-05-21 19:53:00,73.7,73.7,29.79,SE,142,1.0,2.0,100,0.00,,,0.00,0,Wunderground v.1.15,2013-05-22 02:53:00,
2013-05-21 19:58:00,73.4,73.4,29.79,SSE,156,1.0,4.0,100,0.00,,,0.00,0,Wunderground v.1.15,2013-05-22 02:58:00,
2013-05-21 20:07:00,72.6,72.6,29.79,SE,145,0.0,11.0,100,0.00,,,0.00,0,Wunderground v.1.15,2013-05-22 03:07:00,
2013-05-21 20:12:00,72.3,72.3,29.79,SE,128,4.0,4.0,100,0.00,,,0.00,0,Wunderground v.1.15,2013-05-22 03:12:00,
2013-05-21 20:17:00,71.8,71.8,29.79,SSE,151,2.0,4.0,100,0.00,,,0.00,0,Wunderground v.1.15,2013-05-22 03:17:00,
2013-05-21 20:23:00,71.1,71.1,29.79,SSE,151,2.0,4.0,100,0.00,,,0.00,0,Wunderground v.1.15,2013-05-22 03:23:00,
2013-05-21 20:29:00,70.8,70.8,29.80,SW,222,1.0,1.0,100,0.00,,,0.00,0,Wunderground v.1.15,2013-05-22 03:29:00,
2013-05-21 20:34:00,70.4,70.4,29.80,SE,130,0.0,3.0,100,0.00,,,0.00,0,Wunderground v.1.15,2013-05-22 03:34:00,
2013-05-21 20:40:00,70.0,70.0,29.80,SE,139,2.0,6.0,100,0.00,,,0.00,0,Wunderground v.1.15,2013-05-22 03:40:00,
2013-05-21 20:46:00,69.6,69.6,29.80,ESE,118,0.0,6.0,100,0.00,,,0.00,0,Wunderground v.1.15,2013-05-22 03:46:00,
2013-05-21 20:51:00,69.3,69.3,29.80,ESE,111,0.0,3.0,100,0.00,,,0.00,0,Wunderground v.1.15,2013-05-22 03:51:00,
2013-05-21 20:57:00,69.1,69.1,29.81,SE,128,0.0,3.0,100,0.00,,,0.00,0,Wunderground v.1.15,2013-05-22 03:57:00,
2013-05-21 21:01:00,68.8,68.8,29.81,SSE,149,1.0,9.0,100,0.00,,,0.00,0,Wunderground v.1.15,2013-05-22 04:01:00,
2013-05-21 21:02:00,68.7,68.7,29.81,ESE,123,2.0,9.0,100,0.00,,,0.00,0,Wunderground v.1.15,2013-05-22 04:02:00,
2013-05-21 21:03:00,68.7,68.7,29.81,SE,138,3.0,9.0,100,0.00,,,0.00,0,Wunderground v.1.15,2013-05-22 04:03:00,
2013-05-21 21:07:00,68.4,68.4,29.81,SE,126,0.0,9.0,100,0.00,,,0.00,0,Wunderground v.1.15,2013-05-22 04:07:00,
2013-05-21 21:10:00,68.1,68.1,29.81,SE,130,2.0,2.0,100,0.00,,,0.00,0,Wunderground v.1.15,2013-05-22 04:10:00,
2013-05-21 21:15:00,67.9,67.9,29.82,SE,138,0.0,2.0,100,0.00,,,0.00,0,Wunderground v.1.15,2013-05-22 04:15:00,
2013-05-21 21:21:00,67.7,67.7,29.82,SE,127,1.0,1.0,100,0.00,,,0.00,0,Wunderground v.1.15,2013-05-22 04:21:00,
2013-05-21 21:26:00,67.3,67.3,29.82,ESE,114,0.0,3.0,100,0.00,,,0.00,0,Wunderground v.1.15,2013-05-22 04:26:00,
2013-05-21 21:32:00,66.9,66.9,29.82,ESE,119,3.0,3.0,100,0.00,,,0.00,0,Wunderground v.1.15,2013-05-22 04:32:00,
2013-05-21 21:38:00,66.5,66.5,29.83,ESE,122,1.0,3.0,100,0.00,,,0.00,0,Wunderground v.1.15,2013-05-22 04:38:00,
2013-05-21 21:43:00,66.4,66.4,29.83,SE,124,0.0,2.0,100,0.00,,,0.00,0,Wunderground v.1.15,2013-05-22 04:43:00,
2013-05-21 21:49:00,66.4,66.4,29.84,SE,124,1.0,1.0,100,0.00,,,0.00,0,Wunderground v.1.15,2013-05-22 04:49:00,
2013-05-21 21:55:00,66.3,66.3,29.84,SE,142,0.0,1.0,100,0.00,,,0.00,0,Wunderground v.1.15,2013-05-22 04:55:00,
2013-05-21 22:01:00,66.1,66.1,29.84,SE,142,0.0,9.0,100,0.00,,,0.00,0,Wunderground v.1.15,2013-05-22 05:01:00,
2013-05-21 22:07:00,66.0,66.0,29.85,SE,142,0.0,9.0,100,0.00,,,0.00,0,Wunderground v.1.15,2013-05-22 05:07:00,
2013-05-21 22:12:00,65.8,65.8,29.85,SE,141,0.0,0.0,100,0.00,,,0.00,0,Wunderground v.1.15,2013-05-22 05:12:00,
2013-05-21 22:18:00,65.6,65.6,29.85,SE,141,0.0,0.0,100,0.00,,,0.00,0,Wunderground v.1.15,2013-05-22 05:18:00,
2013-05-21 22:23:00,65.4,65.4,29.85,SE,141,0.0,0.0,100,0.00,,,0.00,0,Wunderground v.1.15,2013-05-22 05:23:00,
2013-05-21 22:29:00,65.2,65.2,29.86,SE,141,0.0,0.0,100,0.00,,,0.00,0,Wunderground v.1.15,2013-05-22 05:29:00,
2013-05-21 22:34:00,65.0,65.0,29.86,SE,141,0.0,0.0,100,0.00,,,0.00,0,Wunderground v.1.15,2013-05-22 05:34:00,
2013-05-21 22:40:00,64.4,64.4,29.86,ESE,102,0.0,0.0,100,0.00,,,0.00,0,Wunderground v.1.15,2013-05-22 05:40:00,
2013-05-21 22:46:00,64.3,64.3,29.86,ESE,102,0.0,0.0,100,0.00,,,0.00,0,Wunderground v.1.15,2013-05-22 05:46:00,
2013-05-21 22:52:00,64.0,64.0,29.86,East,101,0.0,0.0,100,0.00,,,0.00,0,Wunderground v.1.15,2013-05-22 05:52:00,
2013-05-21 22:58:00,64.0,64.0,29.87,East,101,0.0,0.0,100,0.00,,,0.00,0,Wunderground v.1.15,2013-05-22 05:58:00,
2013-05-21 23:03:00,63.6,63.6,29.87,ESE,102,0.0,5.0,100,0.00,,,0.00,0,Wunderground v.1.15,2013-05-22 06:03:00,
2013-05-21 23:09:00,63.5,63.5,29.87,NNW,336,3.0,3.0,100,0.00,,,0.00,0,Wunderground v.1.15,2013-05-22 06:09:00,
2013-05-21 23:14:00,63.0,63.0,29.87,WNW,291,0.0,3.0,100,0.00,,,0.00,0,Wunderground v.1.15,2013-05-22 06:14:00,
2013-05-21 23:20:00,62.7,62.7,29.88,NW,314,7.0,7.0,100,0.00,,,0.00,0,Wunderground v.1.15,2013-05-22 06:20:00,
2013-05-21 23:26:00,62.4,62.4,29.88,NW,305,1.0,7.0,100,0.00,,,0.00,0,Wunderground v.1.15,2013-05-22 06:26:00,
2013-05-21 23:32:00,62.2,62.2,29.88,WNW,285,2.0,2.0,100,0.00,,,0.00,0,Wunderground v.1.15,2013-05-22 06:32:00,
2013-05-21 23:37:00,61.8,61.8,29.88,NNW,337,2.0,6.0,100,0.00,,,0.00,0,Wunderground v.1.15,2013-05-22 06:37:00,
2013-05-21 23:42:00,61.4,61.4,29.89,WNW,301,5.0,8.0,100,0.00,,,0.00,0,Wunderground v.1.15,2013-05-22 06:42:00,
2013-05-21 23:48:00,61.0,61.0,29.89,WNW,287,3.0,8.0,100,0.00,,,0.00,0,Wunderground v.1.15,2013-05-22 06:48:00,
2013-05-21 23:54:00,60.5,60.5,29.89,WNW,296,6.0,12.0,100,0.00,,,0.00,0,Wunderground v.1.15,2013-05-22 06:54:00,